FW2728 Weather Reports


Display with metric or nautical units.
time (UTC)temp
F
wind
direction
speed
MPH
gust
MPH
rain 1hr
in
rain 24hr
in
rain mn
in
humidity
%
barometer
mb
20260903035035 86 103 3.0 6.0 0.00 0.00 0.00 61 1013.5
20260903034016 86 95 3.0 8.0 0.00 0.00 0.00 59 1013.4
20260903033016 87 97 2.0 6.0 0.00 0.00 0.00 58 1013.3
20260903032056 87 114 2.0 7.0 0.00 0.00 0.00 57 1013.3
20260903031016 87 105 4.0 9.0 0.00 0.00 0.00 57 1013.2
20260903030017 88 94 3.0 9.0 0.00 0.00 0.00 56 1013.1
20260903025017 88 116 2.0 6.0 0.00 0.00 0.00 56 1013.0
20260903024017 89 90 3.0 9.0 0.00 0.00 0.00 55 1012.8
20260903023017 89 104 3.0 9.0 0.00 0.00 0.00 54 1012.7
20260903022017 90 106 2.0 8.0 0.00 0.00 0.00 53 1012.6
20260903021017 90 120 2.0 7.0 0.00 0.00 0.00 53 1012.4
20260903020018 90 120 3.0 7.0 0.00 0.00 0.00 52 1012.2
20260903015018 91 114 3.0 8.0 0.00 0.00 0.00 51 1012.1
20260903014018 91 117 3.0 9.0 0.00 0.00 0.00 51 1012.1
20260903013018 92 102 4.0 9.0 0.00 0.00 0.00 50 1011.9
20260903012038 92 105 3.0 7.0 0.00 0.00 0.00 50 1011.9
20260903011015 93 128 3.0 8.0 0.00 0.00 0.00 47 1011.7
20260903010015 93 93 3.0 6.0 0.00 0.00 0.00 44 1011.6
20260903005016 94 100 2.0 7.0 0.00 0.00 0.00 44 1011.6
20260903004016 94 90 4.0 9.0 0.00 0.00 0.00 44 1011.6
20260903003016 95 101 3.0 8.0 0.00 0.00 0.00 44 1011.6
20260903002036 95 77 4.0 11.0 0.00 0.00 0.00 44 1011.5
20260903001016 97 60 4.0 7.0 0.00 0.00 0.00 42 1011.4
20260903000016 99 76 2.0 6.0 0.00 0.00 0.00 37 1011.2
20260902235017 99 84 3.0 9.0 0.00 0.00 0.00 37 1011.2
20260902234017 100 69 2.0 6.0 0.00 0.00 0.00 37 1011.1
20260902233017 100 52 2.0 6.0 0.00 0.00 0.00 36 1011.1
20260902232017 100 53 3.0 5.0 0.00 0.00 0.00 36 1011.1
20260902231017 100 54 3.0 6.0 0.00 0.00 0.00 36 1011.1
20260902230018 100 59 3.0 5.0 0.00 0.01 0.00 36 1011.2
20260902225016 100 52 3.0 7.0 0.00 0.01 0.00 36 1011.1
20260902224018 101 59 2.0 6.0 0.00 0.01 0.00 35 1011.2
20260902223018 100 50 2.0 5.0 0.00 0.01 0.00 36 1011.2
20260902222018 101 46 3.0 7.0 0.00 0.01 0.00 35 1011.3
20260902221015 102 40 1.0 4.0 0.00 0.01 0.00 35 1011.2
20260902220015 101 67 3.0 6.0 0.00 0.01 0.00 35 1011.5
20260902215016 101 75 3.0 6.0 0.00 0.01 0.00 35 1011.6
20260902214015 101 60 3.0 7.0 0.00 0.01 0.00 35 1011.6
20260902213016 101 56 3.0 7.0 0.00 0.01 0.00 35 1011.7
20260902212016 101 38 2.0 5.0 0.00 0.01 0.00 36 1011.9
20260902211016 101 47 3.0 9.0 0.00 0.01 0.00 36 1011.9
20260902210016 101 50 3.0 9.0 0.00 0.01 0.00 36 1012.0
20260902205017 101 59 2.0 6.0 0.00 0.01 0.00 35 1012.1
20260902204017 101 56 3.0 7.0 0.00 0.01 0.00 35 1012.2
20260902203037 101 37 2.0 7.0 0.00 0.01 0.00 35 1012.3
20260902202017 101 49 3.0 8.0 0.00 0.01 0.00 37 1012.5
20260902201017 101 55 2.0 7.0 0.00 0.01 0.00 37 1012.6
20260902200018 100 48 2.0 6.0 0.00 0.01 0.00 38 1012.8
20260902195018 100 48 2.0 7.0 0.00 0.01 0.00 38 1013.0
20260902194018 100 64 2.0 5.0 0.00 0.01 0.00 38 1013.2
20260902193018 101 62 2.0 5.0 0.00 0.01 0.00 37 1013.3
20260902192018 100 17 2.0 5.0 0.00 0.01 0.00 38 1013.6
20260902191018 99 54 2.0 5.0 0.00 0.01 0.00 38 1013.7
20260902190018 99 68 3.0 6.0 0.00 0.01 0.00 39 1013.9
20260902185015 99 76 2.0 8.0 0.00 0.01 0.00 38 1013.9
20260902184016 99 51 2.0 6.0 0.00 0.01 0.00 39 1014.1
20260902183036 98 43 3.0 6.0 0.00 0.01 0.00 40 1014.2
20260902182016 97 18 1.0 4.0 0.00 0.01 0.00 41 1014.4
20260902181016 96 88 1.0 5.0 0.00 0.01 0.00 43 1014.7
20260902180036 98 62 3.0 7.0 0.00 0.01 0.00 41 1014.9
20260902175037 97 91 2.0 4.0 0.00 0.01 0.00 42 1015.1
20260902174017 96 114 1.0 3.0 0.00 0.01 0.00 43 1015.2
20260902173017 96 68 2.0 5.0 0.00 0.01 0.00 44 1015.4
20260902172017 96 101 2.0 8.0 0.00 0.01 0.00 45 1015.6
20260902171017 96 95 2.0 7.0 0.00 0.01 0.00 44 1015.7
20260902170017 95 72 2.0 7.0 0.00 0.01 0.00 44 1015.8
20260902165017 95 147 2.0 5.0 0.00 0.01 0.00 44 1015.8
20260902164017 94 193 1.0 4.0 0.00 0.01 0.00 45 1015.9
20260902163018 94 117 2.0 8.0 0.00 0.01 0.00 45 1016.0
20260902162017 93 100 1.0 4.0 0.00 0.01 0.00 47 1016.1
20260902161018 93 93 2.0 6.0 0.00 0.01 0.00 46 1016.2
20260902160018 92 117 1.0 5.0 0.00 0.01 0.00 48 1016.1
20260902155015 92 62 2.0 4.0 0.00 0.01 0.00 50 1016.2
20260902154016 92 118 0.0 3.0 0.00 0.01 0.00 50 1016.1
20260902153056 91 131 1.0 3.0 0.00 0.01 0.00 52 1016.1
20260902152056 90 51 1.0 4.0 0.00 0.01 0.00 53 1016.2
20260902151036 89 137 1.0 3.0 0.00 0.01 0.00 56 1016.2
20260902150016 89 149 1.0 4.0 0.00 0.01 0.00 56 1016.2
20260902145016 87 79 0.0 3.0 0.00 0.01 0.00 59 1016.1
20260902144016 87 185 1.0 4.0 0.00 0.01 0.00 60 1016.1
20260902143017 87 109 2.0 5.0 0.00 0.01 0.00 60 1016.2
20260902142017 86 96 1.0 3.0 0.00 0.01 0.00 61 1016.1
20260902141017 85 79 1.0 3.0 0.00 0.01 0.00 62 1016.1
20260902140018 84 92 2.0 4.0 0.00 0.01 0.00 64 1016.2
20260902135037 84 120 3.0 7.0 0.00 0.01 0.00 65 1016.2
20260902134038 84 87 2.0 6.0 0.00 0.01 0.00 65 1016.2
20260902133018 83 113 2.0 5.0 0.00 0.01 0.00 66 1016.2
20260902132018 83 113 2.0 4.0 0.00 0.01 0.00 68 1016.2
20260902131018 82 90 2.0 4.0 0.00 0.01 0.00 68 1016.0
20260902130018 81 103 1.0 3.0 0.00 0.01 0.00 70 1015.9
20260902125015 80 100 1.0 2.0 0.00 0.01 0.00 73 1015.7
20260902124036 79 111 0.0 2.0 0.00 0.01 0.00 74 1015.7
20260902123016 79 105 1.0 3.0 0.00 0.01 0.00 74 1015.7
20260902122016 79 96 1.0 2.0 0.00 0.01 0.00 74 1015.5
20260902121036 79 110 1.0 2.0 0.00 0.01 0.00 74 1015.5
20260902120016 79 102 1.0 3.0 0.00 0.01 0.00 74 1015.5
20260902115016 79 101 1.0 2.0 0.00 0.01 0.00 74 1015.5
20260902114037 79 87 0.0 2.0 0.00 0.01 0.00 74 1015.5
20260902113016 79 5 0.0 1.0 0.00 0.01 0.00 74 1015.5
20260902112017 79 76 0.0 2.0 0.00 0.01 0.00 73 1015.5
20260902111017 80 70 0.0 1.0 0.00 0.01 0.00 72 1015.5
20260902110017 80 85 1.0 3.0 0.00 0.01 0.00 72 1015.5
20260902105038 80 94 1.0 3.0 0.00 0.01 0.00 72 1015.5
20260902104017 80 97 0.0 2.0 0.00 0.01 0.00 72 1015.6
20260902103037 80 92 0.0 1.0 0.00 0.01 0.00 72 1015.5
20260902102015 80 87 1.0 2.0 0.00 0.01 0.00 71 1015.4
20260902101018 80 73 1.0 2.0 0.00 0.01 0.00 71 1015.4
20260902100018 80 0.0 0.0 0.00 0.01 0.00 70 1015.4
20260902095016 80 68 0.0 1.0 0.00 0.01 0.00 70 1015.4
20260902094015 81 0.0 0.0 0.00 0.01 0.00 69 1015.3
20260902093015 81 78 0.0 1.0 0.00 0.01 0.00 68 1015.3
20260902092016 82 117 0.0 1.0 0.00 0.01 0.00 68 1015.3
20260902091016 82 130 0.0 1.0 0.00 0.01 0.00 67 1015.4
20260902090037 82 249 0.0 2.0 0.00 0.01 0.00 66 1015.4
20260902085016 83 234 0.0 2.0 0.00 0.01 0.00 65 1015.3
20260902084017 83 216 1.0 4.0 0.00 0.01 0.00 65 1015.3
20260902083057 83 190 0.0 2.0 0.00 0.01 0.00 64 1015.4
20260902082017 83 202 1.0 4.0 0.00 0.01 0.00 63 1015.4
20260902081017 84 205 1.0 4.0 0.00 0.01 0.00 63 1015.4
20260902080017 84 182 1.0 4.0 0.00 0.01 0.00 62 1015.4
20260902075038 84 207 2.0 6.0 0.00 0.01 0.00 61 1015.5
20260902074018 85 184 2.0 5.0 0.00 0.01 0.00 61 1015.4
20260902073058 85 196 2.0 5.0 0.00 0.01 0.00 60 1015.5
20260902072018 85 147 2.0 5.0 0.00 0.01 0.00 60 1015.5
20260902071018 85 159 2.0 6.0 0.00 0.01 0.00 59 1015.5
20260902070018 85 190 1.0 4.0 0.00 0.01 0.00 59 1015.5
20260902065016 86 185 1.0 4.0 0.00 0.01 0.00 59 1015.5
20260902064016 85 187 2.0 5.0 0.00 0.01 0.00 59 1015.5
20260902063016 85 188 1.0 5.0 0.00 0.01 0.00 60 1015.4
20260902062016 85 181 2.0 5.0 0.00 0.01 0.00 60 1015.3
20260902061056 86 196 2.0 5.0 0.00 0.01 0.00 60 1015.3
20260902060017 86 178 2.0 5.0 0.00 0.01 0.00 59 1015.3
20260902055017 86 162 2.0 6.0 0.00 0.01 0.00 59 1015.2
20260902054018 86 179 2.0 5.0 0.00 0.01 0.00 59 1015.1
20260902053018 87 174 1.0 7.0 0.00 0.01 0.00 58 1015.1
20260902052018 87 193 2.0 6.0 0.00 0.01 0.00 57 1015.0
20260902051018 87 167 2.0 6.0 0.00 0.01 0.00 56 1014.9
20260902050018 88 152 1.0 7.0 0.00 0.01 0.00 56 1014.9
20260902045036 88 141 2.0 6.0 0.00 0.01 0.01 55 1015.0
20260902044016 88 147 3.0 7.0 0.00 0.01 0.01 54 1015.1
20260902043016 89 126 2.0 7.0 0.00 0.01 0.01 53 1015.0
20260902042016 90 132 3.0 8.0 0.00 0.01 0.01 52 1014.7
20260902041016 89 116 3.0 9.0 0.00 0.01 0.01 51 1014.6
20260902040016 89 100 1.0 4.0 0.00 0.01 0.01 51 1014.5